Location: Rounton
(54.4000°N, 1.3500°W)
Time: 01:13:39
(UTC+00:00)

Altair - Pass Details

Date: 06 December 2021
Orbit: 1501 x 1683 km, 47.2° (Epoch: 19 January)

Event Time Altitude Azimuth Distance (km) Brightness Sun altitude
Rises 16:30:54 0° 242° (WSW) 4,767 12.9 -6.6°
Reaches altitude 10° 16:34:07 10° 238° (WSW) 3,759 11.4 -7.1°
Maximum altitude 16:43:08 52° 166° (SSE) 1,850 8.1 -8.2°
Drops below altitude 10° 16:51:54 10° 94° (E) 3,663 9.0 -9.3°
Enters shadow 16:53:06 - 92° (E) 4,037 9.2 -9.5°
